Flag for Germany Weather past 2 weeks in Coesfeld, North Rhine-Westphalia, Germany

Now
79 °F

Warm.


Feels Like: 81 °F
Forecast: 63 / 79 °F
Wind: 9 mph from Northeast

Location: Rheine-Bentlage

Current Time: Jul 28, 2014 at 5:24:26 PM

Latest Report: Jul 28, 2014 at 4:20 PM


Visibility: N/A

Pressure: 29.86 "Hg

Humidity: 61%

Dew point: 64 °F

Location of CoesfeldLocation

Historic Weather in Coesfeld — Graph

°F

Coesfeld temperature yesterday

Maximum temperature yesterday: 77 °F (at 3:20 PM)
Minimum temperature yesterday: 61 °F (at 5:20 AM)
Average temperature yesterday: 69 °F

Past Weeks' High & Low Weather Summary

 TemperatureHumidityPressure
High91 °F (Jul 19, 2:20 PM)100% (Jul 14, 12:20 AM)30.18 "Hg (Jul 14, 12:20 AM)
Low55 °F (Jul 15, 1:20 AM)28% (Jul 19, 4:20 PM)29.68 "Hg (Jul 13, 5:20 PM)
Average70 °F80%29.98 "Hg
* Reported Jul 13 3:20 PM — Jul 28 3:20 PM, Coesfeld, Weather by CustomWeather, © 2014

Note: Actual official high and low records may vary slightly from our data, if they occured in-between our weather recording intervals... More about our weather records

Advertising

Coesfeld weather history for previous 24 hours

 ConditionsComfort  
Time TempWeatherWind HumidityBarometerVisibility
3:20 PM
Jul 28
77 °FScattered clouds.12 mph65%29.86 "HgN/A
2:20 PM77 °FScattered clouds.12 mph61%29.86 "HgN/A
1:20 PM75 °FPartly sunny.10 mph65%29.89 "HgN/A
12:20 PM75 °FPartly sunny.10 mph65%29.89 "HgN/A
11:20 AM72 °FScattered clouds.10 mph73%29.92 "HgN/A
10:20 AM70 °FScattered clouds.9 mph64%29.92 "HgN/A
9:20 AM66 °FPartly sunny.9 mph78%29.92 "Hg4 mi
8:49 AM66 °FPartly sunny.8 mph78%29.95 "Hg3 mi
8:20 AM64 °FFog.5 mph83%29.95 "Hg2 mi
7:20 AM63 °FFog.3 mph100%29.95 "Hg1 mi
6:20 AM63 °FFog.5 mph100%29.95 "Hg0 mi
6:03 AM61 °FFog.3 mph100%29.95 "Hg0 mi
5:53 AM61 °FFog.3 mph100%29.95 "Hg1 mi
5:20 AM63 °FMild.2 mph94%29.95 "Hg0 mi
4:20 AM63 °FMild.3 mph94%29.95 "Hg1 mi
3:20 AM61 °FCool.1 mph100%29.95 "Hg0 mi
2:20 AM61 °FCool.1 mph100%29.98 "Hg0 mi
1:20 AM63 °FMild.1 mph100%29.98 "Hg1 mi
12:20 AM64 °FMild.1 mph100%29.98 "Hg1 mi
11:20 PM
Jul 27
64 °FMild.No wind100%29.98 "Hg1 mi
10:20 PM66 °FMild.No wind94%29.98 "HgN/A
9:20 PM68 °FMild.2 mph94%29.98 "HgN/A
8:20 PM75 °FMild.3 mph65%29.98 "HgN/A
7:20 PM77 °FWarm.6 mph47%29.95 "HgN/A
6:20 PM77 °FWarm.9 mph47%29.95 "HgN/A
5:20 PM77 °FWarm.8 mph51%29.95 "HgN/A
Weather by CustomWeather, © 2014

See weather overviewHow to use our weather pages